| time (UTC) | temp C | wind direction | speed KPH | gust KPH | rain 1hr cm | rain 24hr cm | rain mn cm | humidity % | barometer mb |
| 20260503232232 | 12 | 140 | 4.8 | 4.8 | 0.00 | 0.00 | 0.00 | 63 | 1005.9 |
| 20260503231730 | 13 | 165 | 6.4 | 9.7 | 0.00 | 0.00 | 0.00 | 62 | 1006.2 |
| 20260503231227 | 13 | 254 | 4.8 | 8.0 | 0.00 | 0.00 | 0.00 | 62 | 1006.3 |
| 20260503230723 | 13 | 111 | 3.2 | 4.8 | 0.00 | 0.00 | 0.00 | 62 | 1006.4 |
| 20260503230220 | 13 | 93 | 3.2 | 3.2 | 0.00 | 0.00 | 0.00 | 61 | 1006.2 |
| 20260503225718 | 13 | 129 | 3.2 | 3.2 | 0.00 | 0.00 | 0.00 | 61 | 1006.3 |
| 20260503225218 | 13 | 137 | 0.0 | 0.0 | 0.00 | 0.00 | 0.00 | 62 | 1006.4 |
| 20260503224715 | 13 | 82 | 3.2 | 3.2 | 0.00 | 0.00 | 0.00 | 61 | 1006.6 |
| 20260503224213 | 13 | 71 | 3.2 | 4.8 | 0.00 | 0.00 | 0.00 | 61 | 1006.8 |
| 20260503223710 | 13 | 115 | 3.2 | 3.2 | 0.00 | 0.00 | 0.00 | 61 | 1007.0 |
| 20260503223208 | 13 | 190 | 3.2 | 4.8 | 0.00 | 0.00 | 0.00 | 61 | 1007.1 |
| 20260503222704 | 13 | 89 | 1.6 | 1.6 | 0.00 | 0.00 | 0.00 | 60 | 1006.7 |
| 20260503222202 | 14 | 137 | 1.6 | 3.2 | 0.00 | 0.00 | 0.00 | 60 | 1007.3 |
| 20260503221700 | 14 | 236 | 3.2 | 3.2 | 0.00 | 0.00 | 0.00 | 61 | 1007.1 |
| 20260503221157 | 13 | 222 | 3.2 | 3.2 | 0.00 | 0.00 | 0.00 | 61 | 1007.2 |
| 20260503220654 | 13 | 322 | 4.8 | 9.7 | 0.00 | 0.00 | 0.00 | 62 | 1007.3 |
| 20260503220150 | 13 | 141 | 0.0 | 0.0 | 0.00 | 0.00 | 0.00 | 63 | 1007.3 |
| 20260503215647 | 13 | 56 | 4.8 | 11.3 | 0.00 | 0.00 | 0.00 | 63 | 1007.5 |
| 20260503215143 | 13 | 235 | 4.8 | 4.8 | 0.00 | 0.00 | 0.00 | 64 | 1007.4 |
| 20260503214642 | 13 | 170 | 1.6 | 3.2 | 0.00 | 0.00 | 0.00 | 64 | 1007.5 |
| 20260503214138 | 12 | 111 | 0.0 | 1.6 | 0.00 | 0.00 | 0.00 | 65 | 1007.5 |
| 20260503213632 | 12 | 212 | 0.0 | 1.6 | 0.00 | 0.00 | 0.00 | 65 | 1007.3 |
| 20260503213128 | 12 | 215 | 8.0 | 9.7 | 0.00 | 0.00 | 0.00 | 65 | 1007.6 |
| 20260503212626 | 12 | 214 | 6.4 | 12.9 | 0.00 | 0.00 | 0.00 | 65 | 1007.5 |
| 20260503212123 | 12 | 156 | 8.0 | 9.7 | 0.00 | 0.00 | 0.00 | 65 | 1007.4 |
| 20260503211621 | 12 | 231 | 6.4 | 9.7 | 0.00 | 0.00 | 0.00 | 66 | 1007.5 |
| 20260503211115 | 12 | 99 | 4.8 | 4.8 | 0.00 | 0.00 | 0.00 | 66 | 1007.6 |
| 20260503210607 | 12 | 233 | 3.2 | 4.8 | 0.00 | 0.00 | 0.00 | 67 | 1007.6 |
| 20260503205559 | 12 | 219 | 3.2 | 3.2 | 0.00 | 0.00 | 0.00 | 67 | 1007.7 |
| 20260503205055 | 12 | 213 | 8.0 | 12.9 | 0.00 | 0.00 | 0.00 | 67 | 1007.8 |
| 20260503204553 | 12 | 232 | 6.4 | 11.3 | 0.00 | 0.00 | 0.00 | 67 | 1008.0 |
| 20260503204050 | 12 | 176 | 3.2 | 4.8 | 0.00 | 0.00 | 0.00 | 67 | 1008.1 |
| 20260503203547 | 11 | 160 | 3.2 | 3.2 | 0.00 | 0.00 | 0.00 | 68 | 1008.1 |
| 20260503203044 | 11 | 145 | 3.2 | 8.0 | 0.00 | 0.00 | 0.00 | 69 | 1008.2 |
| 20260503202542 | 11 | 170 | 3.2 | 3.2 | 0.00 | 0.00 | 0.00 | 69 | 1008.4 |
| 20260503202039 | 11 | 106 | 12.9 | 17.7 | 0.00 | 0.00 | 0.00 | 70 | 1008.4 |
| 20260503201537 | 11 | 82 | 4.8 | 9.7 | 0.00 | 0.00 | 0.00 | 71 | 1008.6 |
| 20260503201034 | 11 | 90 | 4.8 | 9.7 | 0.00 | 0.00 | 0.00 | 71 | 1008.7 |
| 20260503200530 | 11 | 241 | 11.3 | 16.1 | 0.00 | 0.00 | 0.00 | 69 | 1008.8 |
| 20260503200027 | 11 | 212 | 8.0 | 12.9 | 0.00 | 0.00 | 0.00 | 67 | 1008.6 |
| 20260503195524 | 12 | 253 | 11.3 | 17.7 | 0.00 | 0.00 | 0.00 | 65 | 1008.8 |
| 20260503195021 | 12 | 184 | 4.8 | 4.8 | 0.00 | 0.00 | 0.00 | 63 | 1009.0 |
| 20260503194519 | 12 | 231 | 8.0 | 11.3 | 0.00 | 0.00 | 0.00 | 61 | 1009.1 |
| 20260503194018 | 13 | 216 | 4.8 | 8.0 | 0.00 | 0.00 | 0.00 | 60 | 1008.9 |
| 20260503193515 | 13 | 260 | 6.4 | 8.0 | 0.00 | 0.00 | 0.00 | 58 | 1008.9 |
| 20260503193010 | 14 | 247 | 8.0 | 14.5 | 0.00 | 0.00 | 0.00 | 57 | 1009.1 |
| 20260503192507 | 14 | 247 | 4.8 | 4.8 | 0.00 | 0.00 | 0.00 | 56 | 1009.0 |
| 20260503192002 | 15 | 253 | 6.4 | 8.0 | 0.00 | 0.00 | 0.00 | 53 | 1008.8 |
| 20260503191500 | 15 | 239 | 20.9 | 29.0 | 0.00 | 0.00 | 0.00 | 53 | 1009.0 |
| 20260503190956 | 16 | 39 | 8.0 | 17.7 | 0.00 | 0.00 | 0.00 | 52 | 1009.0 |
| 20260503190453 | 16 | 255 | 12.9 | 17.7 | 0.00 | 0.00 | 0.00 | 50 | 1009.2 |
| 20260503185950 | 16 | 175 | 14.5 | 20.9 | 0.00 | 0.00 | 0.00 | 50 | 1009.0 |
| 20260503185447 | 16 | 144 | 8.0 | 9.7 | 0.00 | 0.00 | 0.00 | 50 | 1009.1 |
| 20260503184946 | 16 | 195 | 9.7 | 12.9 | 0.00 | 0.00 | 0.00 | 50 | 1009.1 |
| 20260503184443 | 16 | 240 | 12.9 | 20.9 | 0.00 | 0.00 | 0.00 | 49 | 1008.7 |
| 20260503183939 | 16 | 247 | 11.3 | 16.1 | 0.00 | 0.00 | 0.00 | 49 | 1009.1 |
| 20260503183436 | 16 | 71 | 8.0 | 12.9 | 0.00 | 0.00 | 0.00 | 50 | 1009.0 |
| 20260503182933 | 16 | 150 | 6.4 | 9.7 | 0.00 | 0.00 | 0.00 | 49 | 1009.5 |
| 20260503182432 | 16 | 163 | 12.9 | 20.9 | 0.00 | 0.00 | 0.00 | 49 | 1009.3 |
| 20260503181929 | 16 | 197 | 14.5 | 17.7 | 0.00 | 0.00 | 0.00 | 48 | 1009.3 |
| 20260503181426 | 17 | 176 | 1.6 | 3.2 | 0.00 | 0.00 | 0.00 | 48 | 1009.1 |
| 20260503180921 | 16 | 243 | 8.0 | 9.7 | 0.00 | 0.00 | 0.00 | 48 | 1009.2 |
| 20260503180420 | 16 | 93 | 6.4 | 11.3 | 0.00 | 0.00 | 0.00 | 49 | 1009.5 |
| 20260503175917 | 16 | 262 | 4.8 | 4.8 | 0.00 | 0.00 | 0.00 | 48 | 1009.3 |
| 20260503175415 | 16 | 235 | 9.7 | 16.1 | 0.00 | 0.00 | 0.00 | 48 | 1009.5 |
| 20260503174910 | 16 | 301 | 3.2 | 3.2 | 0.00 | 0.00 | 0.00 | 47 | 1009.4 |
| 20260503174408 | 16 | 113 | 6.4 | 9.7 | 0.00 | 0.00 | 0.00 | 47 | 1009.6 |
| 20260503173903 | 16 | 229 | 8.0 | 9.7 | 0.00 | 0.00 | 0.00 | 47 | 1009.6 |
| 20260503173359 | 16 | 238 | 8.0 | 12.9 | 0.00 | 0.00 | 0.00 | 49 | 1009.8 |
| 20260503172856 | 17 | 260 | 12.9 | 14.5 | 0.00 | 0.00 | 0.00 | 48 | 1009.6 |
| 20260503172354 | 16 | 134 | 8.0 | 12.9 | 0.00 | 0.00 | 0.00 | 50 | 1009.8 |
| 20260503171850 | 16 | 251 | 8.0 | 11.3 | 0.00 | 0.00 | 0.00 | 50 | 1009.6 |
| 20260503171347 | 16 | 205 | 4.8 | 4.8 | 0.00 | 0.00 | 0.00 | 51 | 1009.7 |
| 20260503170844 | 16 | 252 | 6.4 | 9.7 | 0.00 | 0.00 | 0.00 | 52 | 1009.7 |
| 20260503170340 | 16 | 152 | 4.8 | 8.0 | 0.00 | 0.00 | 0.00 | 51 | 1010.1 |
| 20260503150733 | 12 | 202 | 1.6 | 4.8 | 0.00 | 0.00 | 0.00 | 55 | 1010.7 |
| 20260503150229 | 12 | 129 | 8.0 | 11.3 | 0.00 | 0.00 | 0.00 | 54 | 1010.8 |
| 20260503140153 | 11 | 219 | 3.2 | 3.2 | 0.00 | 0.00 | 0.00 | 56 | 1011.2 |
| 20260503131123 | 10 | 150 | 1.6 | 3.2 | 0.00 | 0.00 | 0.00 | 60 | 1011.7 |
| 20260503130621 | 10 | 225 | 6.4 | 8.0 | 0.00 | 0.00 | 0.00 | 61 | 1011.6 |
| 20260503130118 | 9 | 194 | 0.0 | 1.6 | 0.00 | 0.00 | 0.00 | 65 | 1011.4 |
| 20260503110511 | 5 | 134 | 0.0 | 0.0 | 0.00 | 0.00 | 0.00 | 73 | 1011.6 |
| 20260503090402 | 3 | 161 | 0.0 | 0.0 | 0.00 | 0.00 | 0.00 | 70 | 1011.8 |
| 20260503081329 | 5 | 121 | 0.0 | 1.6 | 0.00 | 0.00 | 0.00 | 65 | 1012.0 |
| 20260503080826 | 5 | 166 | 0.0 | 0.0 | 0.00 | 0.00 | 0.00 | 65 | 1011.9 |
| 20260503080323 | 5 | 160 | 0.0 | 1.6 | 0.00 | 0.00 | 0.00 | 65 | 1012.1 |
| 20260503072759 | 5 | 187 | 3.2 | 3.2 | 0.00 | 0.00 | 0.00 | 61 | 1012.3 |
| 20260503072256 | 5 | 162 | 0.0 | 1.6 | 0.00 | 0.00 | 0.00 | 60 | 1012.4 |
| 20260503071752 | 5 | 137 | 3.2 | 4.8 | 0.00 | 0.00 | 0.00 | 59 | 1012.2 |
| 20260503071250 | 5 | 140 | 0.0 | 1.6 | 0.00 | 0.00 | 0.00 | 58 | 1012.2 |
| 20260503070746 | 5 | 125 | 0.0 | 1.6 | 0.00 | 0.00 | 0.00 | 58 | 1012.4 |
| 20260503070244 | 5 | 195 | 0.0 | 0.0 | 0.00 | 0.00 | 0.00 | 57 | 1012.2 |
| 20260503060203 | 3 | 129 | 0.0 | 0.0 | 0.00 | 0.00 | 0.00 | 62 | 1013.1 |
| 20260503054650 | 3 | 135 | 0.0 | 0.0 | 0.00 | 0.00 | 0.00 | 66 | 1013.2 |
| 20260503054147 | 3 | 130 | 0.0 | 0.0 | 0.00 | 0.00 | 0.00 | 66 | 1013.7 |
| 20260503053645 | 3 | 131 | 0.0 | 0.0 | 0.00 | 0.00 | 0.00 | 65 | 1013.6 |
| 20260503053144 | 3 | 131 | 0.0 | 0.0 | 0.00 | 0.00 | 0.00 | 65 | 1013.7 |
| 20260503052640 | 3 | 127 | 0.0 | 0.0 | 0.00 | 0.00 | 0.00 | 65 | 1013.6 |
| 20260503052136 | 3 | 137 | 0.0 | 0.0 | 0.00 | 0.00 | 0.00 | 64 | 1013.7 |
| 20260503051631 | 4 | 127 | 0.0 | 0.0 | 0.00 | 0.00 | 0.00 | 61 | 1013.6 |
| 20260503051130 | 4 | 127 | 0.0 | 0.0 | 0.00 | 0.00 | 0.00 | 61 | 1013.7 |
| 20260503050626 | 4 | 125 | 0.0 | 0.0 | 0.00 | 0.00 | 0.00 | 61 | 1013.8 |
| 20260503050122 | 3 | 133 | 0.0 | 0.0 | 0.00 | 0.00 | 0.00 | 63 | 1013.7 |
| 20260503045620 | 3 | 133 | 0.0 | 0.0 | 0.00 | 0.00 | 0.00 | 64 | 1014.0 |
| 20260503045117 | 3 | 136 | 0.0 | 0.0 | 0.00 | 0.00 | 0.00 | 63 | 1014.0 |
| 20260503044614 | 3 | 143 | 0.0 | 0.0 | 0.00 | 0.00 | 0.00 | 63 | 1013.8 |
| 20260503044111 | 3 | 137 | 0.0 | 0.0 | 0.00 | 0.00 | 0.00 | 63 | 1014.0 |
| 20260503043607 | 3 | 133 | 0.0 | 0.0 | 0.00 | 0.00 | 0.00 | 64 | 1014.1 |
| 20260503043104 | 3 | 135 | 0.0 | 0.0 | 0.00 | 0.00 | 0.00 | 65 | 1013.9 |
| 20260503042601 | 3 | 135 | 0.0 | 0.0 | 0.00 | 0.00 | 0.00 | 65 | 1014.0 |
| 20260503042057 | 3 | 136 | 0.0 | 0.0 | 0.00 | 0.00 | 0.00 | 65 | 1014.1 |
| 20260503041554 | 3 | 135 | 0.0 | 0.0 | 0.00 | 0.00 | 0.00 | 65 | 1014.2 |
| 20260503041052 | 4 | 132 | 0.0 | 0.0 | 0.00 | 0.00 | 0.00 | 64 | 1014.1 |
| 20260503040549 | 4 | 138 | 0.0 | 0.0 | 0.00 | 0.00 | 0.00 | 63 | 1014.1 |
| 20260503040046 | 4 | 132 | 0.0 | 0.0 | 0.00 | 0.00 | 0.00 | 63 | 1014.3 |
| 20260503035543 | 4 | 132 | 0.0 | 0.0 | 0.00 | 0.00 | 0.00 | 63 | 1014.4 |
| 20260503035040 | 4 | 138 | 0.0 | 0.0 | 0.00 | 0.00 | 0.00 | 64 | 1014.5 |
| 20260503034537 | 3 | 153 | 1.6 | 1.6 | 0.00 | 0.00 | 0.00 | 64 | 1014.4 |
| 20260503034034 | 3 | 151 | 0.0 | 0.0 | 0.00 | 0.00 | 0.00 | 65 | 1014.4 |
| 20260503033532 | 3 | 137 | 0.0 | 0.0 | 0.00 | 0.00 | 0.00 | 65 | 1014.6 |
| 20260503033029 | 3 | 153 | 0.0 | 0.0 | 0.00 | 0.00 | 0.00 | 65 | 1014.6 |
| 20260503032528 | 3 | 135 | 0.0 | 0.0 | 0.00 | 0.00 | 0.00 | 65 | 1014.8 |
| 20260503032025 | 3 | 134 | 0.0 | 0.0 | 0.00 | 0.00 | 0.00 | 65 | 1014.7 |
| 20260503031523 | 4 | 146 | 0.0 | 0.0 | 0.00 | 0.00 | 0.00 | 65 | 1014.6 |
| 20260503031020 | 3 | 133 | 0.0 | 0.0 | 0.00 | 0.00 | 0.00 | 65 | 1014.7 |
| 20260503030516 | 3 | 135 | 0.0 | 0.0 | 0.00 | 0.00 | 0.00 | 65 | 1014.8 |
| 20260503030013 | 4 | 134 | 0.0 | 0.0 | 0.00 | 0.00 | 0.00 | 64 | 1014.8 |
| 20260503025509 | 4 | 145 | 0.0 | 0.0 | 0.00 | 0.00 | 0.00 | 64 | 1014.8 |
| 20260503025008 | 4 | 131 | 0.0 | 0.0 | 0.00 | 0.00 | 0.00 | 64 | 1014.7 |
| 20260503024504 | 4 | 132 | 0.0 | 0.0 | 0.00 | 0.00 | 0.00 | 63 | 1015.0 |
| 20260503024001 | 4 | 131 | 0.0 | 0.0 | 0.00 | 0.00 | 0.00 | 63 | 1014.8 |
| 20260503023457 | 4 | 131 | 0.0 | 0.0 | 0.00 | 0.00 | 0.00 | 63 | 1015.0 |
| 20260503022955 | 5 | 131 | 0.0 | 0.0 | 0.00 | 0.00 | 0.00 | 62 | 1015.0 |
| 20260503022450 | 5 | 137 | 0.0 | 0.0 | 0.00 | 0.00 | 0.00 | 61 | 1014.9 |
| 20260503021945 | 5 | 131 | 0.0 | 0.0 | 0.00 | 0.00 | 0.00 | 61 | 1014.9 |
| 20260503021442 | 5 | 131 | 0.0 | 0.0 | 0.00 | 0.00 | 0.00 | 61 | 1014.8 |
| 20260503020940 | 5 | 136 | 0.0 | 0.0 | 0.00 | 0.00 | 0.00 | 60 | 1014.7 |
| 20260503020437 | 5 | 127 | 0.0 | 0.0 | 0.00 | 0.00 | 0.00 | 60 | 1015.1 |
| 20260503015933 | 5 | 128 | 0.0 | 0.0 | 0.00 | 0.00 | 0.00 | 59 | 1014.7 |
| 20260503015430 | 5 | 143 | 0.0 | 0.0 | 0.00 | 0.00 | 0.00 | 58 | 1014.9 |
| 20260503014926 | 5 | 158 | 0.0 | 0.0 | 0.00 | 0.00 | 0.00 | 57 | 1014.9 |
| 20260503014424 | 5 | 137 | 0.0 | 0.0 | 0.00 | 0.00 | 0.00 | 57 | 1014.9 |
| 20260503013922 | 5 | 133 | 0.0 | 0.0 | 0.00 | 0.00 | 0.00 | 56 | 1014.8 |
| 20260503013418 | 6 | 135 | 0.0 | 0.0 | 0.00 | 0.00 | 0.00 | 56 | 1014.8 |
| 20260503012916 | 6 | 128 | 0.0 | 0.0 | 0.00 | 0.00 | 0.00 | 54 | 1014.6 |
| 20260503012414 | 6 | 161 | 0.0 | 0.0 | 0.00 | 0.00 | 0.00 | 52 | 1014.8 |
| 20260503011909 | 6 | 156 | 0.0 | 0.0 | 0.00 | 0.00 | 0.00 | 52 | 1015.0 |
| 20260503011407 | 6 | 161 | 1.6 | 1.6 | 0.00 | 0.00 | 0.00 | 50 | 1014.7 |
| 20260503010903 | 6 | 146 | 1.6 | 1.6 | 0.00 | 0.00 | 0.00 | 50 | 1014.7 |
| 20260503010400 | 7 | 154 | 0.0 | 0.0 | 0.00 | 0.00 | 0.00 | 50 | 1014.6 |
| 20260503005857 | 7 | 146 | 0.0 | 0.0 | 0.00 | 0.00 | 0.00 | 50 | 1014.8 |
| 20260503005355 | 7 | 236 | 1.6 | 1.6 | 0.00 | 0.00 | 0.00 | 49 | 1014.7 |
| 20260503004850 | 7 | 226 | 3.2 | 3.2 | 0.00 | 0.00 | 0.00 | 48 | 1014.8 |
| 20260503004348 | 7 | 150 | 1.6 | 3.2 | 0.00 | 0.00 | 0.00 | 47 | 1014.8 |
| 20260503003846 | 7 | 225 | 1.6 | 1.6 | 0.00 | 0.00 | 0.00 | 46 | 1014.6 |
| 20260503003342 | 7 | 151 | 0.0 | 1.6 | 0.00 | 0.00 | 0.00 | 46 | 1014.7 |
| 20260503002839 | 8 | 163 | 1.6 | 1.6 | 0.00 | 0.00 | 0.00 | 46 | 1014.5 |
| 20260503002337 | 8 | 206 | 1.6 | 3.2 | 0.00 | 0.00 | 0.00 | 45 | 1014.7 |
| 20260503001833 | 8 | 229 | 0.0 | 3.2 | 0.00 | 0.00 | 0.00 | 46 | 1014.6 |
| 20260503001329 | 8 | 251 | 3.2 | 4.8 | 0.00 | 0.00 | 0.00 | 44 | 1014.5 |
| 20260503000827 | 8 | 156 | 1.6 | 1.6 | 0.00 | 0.00 | 0.00 | 44 | 1014.5 |
| 20260503000325 | 8 | 249 | 3.2 | 3.2 | 0.00 | 0.00 | 0.00 | 42 | 1014.6 |
| 20260502235821 | 9 | 266 | 3.2 | 4.8 | 0.00 | 0.00 | 0.00 | 41 | 1014.6 |
| 20260502235318 | 9 | 154 | 0.0 | 1.6 | 0.00 | 0.00 | 0.00 | 41 | 1014.8 |
| 20260502234815 | 9 | 136 | 0.0 | 0.0 | 0.00 | 0.00 | 0.00 | 41 | 1014.8 |
| 20260502234312 | 9 | 251 | 3.2 | 3.2 | 0.00 | 0.00 | 0.00 | 40 | 1014.5 |
| 20260502233808 | 9 | 127 | 1.6 | 1.6 | 0.00 | 0.00 | 0.00 | 39 | 1014.8 |
| 20260502233305 | 9 | 139 | 1.6 | 1.6 | 0.00 | 0.00 | 0.00 | 39 | 1014.8 |
| 20260502232801 | 9 | 181 | 1.6 | 1.6 | 0.00 | 0.00 | 0.00 | 38 | 1014.6 |